| time (UTC) | temp F | wind direction | speed MPH | gust MPH | rain 1hr in | rain 24hr in | rain mn in | humidity % | barometer mb |
| 20260905204805 | 78 | 234 | 0.0 | 1.0 | 0.00 | 0.00 | 0.00 | 90 | 1007.6 |
| 20260905204534 | 78 | 222 | 1.0 | 1.0 | 0.00 | 0.00 | 0.00 | 90 | 1007.6 |
| 20260905204255 | 78 | 222 | 0.0 | 1.0 | 0.00 | 0.00 | 0.00 | 90 | 1007.6 |
| 20260905204034 | 78 | 268 | 0.0 | 2.0 | 0.00 | 0.00 | 0.00 | 90 | 1007.6 |
| 20260905203745 | 78 | 163 | 0.0 | 2.0 | 0.00 | 0.00 | 0.00 | 90 | 1007.6 |
| 20260905203534 | 78 | 266 | 0.0 | 3.0 | 0.00 | 0.00 | 0.00 | 89 | 1007.6 |
| 20260905203235 | 78 | 238 | 1.0 | 3.0 | 0.00 | 0.00 | 0.00 | 89 | 1007.6 |
| 20260905203033 | 78 | 275 | 1.0 | 2.0 | 0.00 | 0.00 | 0.00 | 89 | 1007.6 |
| 20260905202725 | 78 | 269 | 1.0 | 2.0 | 0.00 | 0.00 | 0.00 | 89 | 1007.6 |
| 20260905202534 | 78 | 257 | 1.0 | 2.0 | 0.00 | 0.00 | 0.00 | 89 | 1007.6 |
| 20260905202215 | 78 | 253 | 1.0 | 3.0 | 0.00 | 0.00 | 0.00 | 89 | 1007.6 |
| 20260905202034 | 78 | 246 | 1.0 | 3.0 | 0.00 | 0.00 | 0.00 | 89 | 1007.6 |
| 20260905201705 | 78 | 198 | 1.0 | 3.0 | 0.00 | 0.00 | 0.00 | 89 | 1007.7 |
| 20260905201533 | 77 | 184 | 1.0 | 4.0 | 0.00 | 0.00 | 0.00 | 89 | 1007.6 |
| 20260905201155 | 78 | 169 | 2.0 | 4.0 | 0.00 | 0.00 | 0.00 | 89 | 1007.6 |
| 20260905201033 | 78 | 175 | 2.0 | 4.0 | 0.00 | 0.00 | 0.00 | 89 | 1007.7 |
| 20260905200645 | 78 | 214 | 3.0 | 4.0 | 0.00 | 0.00 | 0.00 | 89 | 1007.6 |
| 20260905200534 | 78 | 221 | 2.0 | 4.0 | 0.00 | 0.00 | 0.00 | 89 | 1007.6 |
| 20260905200134 | 78 | 271 | 1.0 | 5.0 | 0.00 | 0.00 | 0.00 | 89 | 1007.6 |
| 20260905200033 | 78 | 224 | 3.0 | 5.0 | 0.00 | 0.00 | 0.00 | 89 | 1007.6 |
| 20260905195624 | 78 | 271 | 2.0 | 11.0 | 0.00 | 0.00 | 0.00 | 89 | 1007.5 |
| 20260905195115 | 78 | 202 | 2.0 | 7.0 | 0.00 | 0.00 | 0.00 | 89 | 1007.5 |
| 20260905195033 | 78 | 199 | 2.0 | 7.0 | 0.00 | 0.00 | 0.00 | 89 | 1007.5 |
| 20260905194605 | 79 | 167 | 3.0 | 7.0 | 0.00 | 0.00 | 0.00 | 88 | 1007.4 |
| 20260905194534 | 79 | 233 | 3.0 | 7.0 | 0.00 | 0.00 | 0.00 | 88 | 1007.4 |
| 20260905194054 | 79 | 132 | 3.0 | 6.0 | 0.00 | 0.00 | 0.00 | 88 | 1007.4 |
| 20260905194033 | 79 | 129 | 3.0 | 6.0 | 0.00 | 0.00 | 0.00 | 88 | 1007.4 |
| 20260905193544 | 79 | 207 | 5.0 | 9.0 | 0.00 | 0.00 | 0.00 | 88 | 1007.4 |
| 20260905193533 | 79 | 186 | 4.0 | 9.0 | 0.00 | 0.00 | 0.00 | 88 | 1007.4 |
| 20260905193035 | 79 | 239 | 6.0 | 8.0 | 0.00 | 0.00 | 0.00 | 88 | 1007.4 |
| 20260905193033 | 79 | 251 | 6.0 | 8.0 | 0.00 | 0.00 | 0.00 | 88 | 1007.4 |
| 20260905192533 | 80 | 360 | 1.0 | 10.0 | 0.00 | 0.00 | 0.00 | 87 | 1007.4 |
| 20260905192525 | 80 | 355 | 1.0 | 10.0 | 0.00 | 0.00 | 0.00 | 87 | 1007.4 |
| 20260905192033 | 80 | 230 | 6.0 | 9.0 | 0.00 | 0.00 | 0.00 | 87 | 1007.4 |
| 20260905191533 | 80 | 65 | 0.0 | 4.0 | 0.00 | 0.00 | 0.00 | 87 | 1007.4 |
| 20260905191504 | 80 | 19 | 0.0 | 4.0 | 0.00 | 0.00 | 0.00 | 87 | 1007.5 |
| 20260905191033 | 80 | 21 | 0.0 | 4.0 | 0.00 | 0.00 | 0.00 | 86 | 1007.4 |
| 20260905190533 | 80 | 63 | 1.0 | 7.0 | 0.00 | 0.00 | 0.00 | 86 | 1007.5 |
| 20260905190445 | 80 | 34 | 4.0 | 7.0 | 0.00 | 0.00 | 0.00 | 86 | 1007.4 |
| 20260905190032 | 80 | 18 | 3.0 | 5.0 | 0.00 | 0.00 | 0.00 | 86 | 1007.4 |
| 20260905185934 | 80 | 360 | 2.0 | 5.0 | 0.00 | 0.00 | 0.00 | 86 | 1007.5 |
| 20260905185533 | 81 | 360 | 0.0 | 2.0 | 0.00 | 0.00 | 0.00 | 86 | 1007.4 |
| 20260905185424 | 81 | 327 | 0.0 | 2.0 | 0.00 | 0.00 | 0.00 | 86 | 1007.4 |
| 20260905185033 | 81 | 276 | 0.0 | 2.0 | 0.00 | 0.00 | 0.00 | 85 | 1007.4 |
| 20260905184914 | 81 | 280 | 0.0 | 2.0 | 0.00 | 0.00 | 0.00 | 85 | 1007.4 |
| 20260905184532 | 81 | 18 | 1.0 | 2.0 | 0.00 | 0.00 | 0.00 | 85 | 1007.4 |
| 20260905184033 | 81 | 19 | 0.0 | 1.0 | 0.00 | 0.00 | 0.00 | 85 | 1007.5 |
| 20260905183854 | 81 | 10 | 1.0 | 2.0 | 0.00 | 0.00 | 0.00 | 84 | 1007.5 |
| 20260905183533 | 81 | 28 | 1.0 | 2.0 | 0.00 | 0.00 | 0.00 | 84 | 1007.5 |
| 20260905183344 | 81 | 40 | 1.0 | 2.0 | 0.00 | 0.00 | 0.00 | 84 | 1007.5 |
| 20260905183033 | 81 | 54 | 1.0 | 2.0 | 0.00 | 0.00 | 0.00 | 83 | 1007.5 |
| 20260905182834 | 81 | 39 | 2.0 | 6.0 | 0.00 | 0.00 | 0.00 | 83 | 1007.6 |
| 20260905182532 | 81 | 62 | 3.0 | 6.0 | 0.00 | 0.00 | 0.00 | 82 | 1007.6 |
| 20260905182324 | 82 | 58 | 2.0 | 5.0 | 0.00 | 0.00 | 0.00 | 82 | 1007.5 |
| 20260905182033 | 82 | 33 | 2.0 | 6.0 | 0.00 | 0.00 | 0.00 | 82 | 1007.5 |
| 20260905181814 | 82 | 38 | 2.0 | 4.0 | 0.00 | 0.00 | 0.00 | 82 | 1007.5 |
| 20260905181532 | 82 | 51 | 1.0 | 2.0 | 0.00 | 0.00 | 0.00 | 81 | 1007.6 |
| 20260905181303 | 82 | 20 | 0.0 | 1.0 | 0.00 | 0.00 | 0.00 | 81 | 1007.6 |
| 20260905181032 | 82 | 129 | 0.0 | 1.0 | 0.00 | 0.00 | 0.00 | 81 | 1007.6 |
| 20260905180754 | 82 | 267 | 0.0 | 4.0 | 0.00 | 0.00 | 0.00 | 81 | 1007.5 |
| 20260905180532 | 82 | 324 | 0.0 | 4.0 | 0.00 | 0.00 | 0.00 | 81 | 1007.5 |
| 20260905180244 | 82 | 216 | 1.0 | 4.0 | 0.00 | 0.00 | 0.00 | 80 | 1007.6 |
| 20260905180033 | 82 | 257 | 1.0 | 3.0 | 0.00 | 0.00 | 0.00 | 80 | 1007.7 |
| 20260905175734 | 82 | 201 | 1.0 | 2.0 | 0.00 | 0.00 | 0.00 | 80 | 1007.7 |
| 20260905175532 | 82 | 183 | 0.0 | 2.0 | 0.00 | 0.00 | 0.00 | 80 | 1007.7 |
| 20260905175223 | 82 | 219 | 1.0 | 3.0 | 0.00 | 0.00 | 0.00 | 80 | 1007.8 |
| 20260905175032 | 82 | 215 | 1.0 | 3.0 | 0.00 | 0.00 | 0.00 | 80 | 1007.8 |
| 20260905174532 | 82 | 118 | 2.0 | 6.0 | 0.00 | 0.00 | 0.00 | 80 | 1007.9 |
| 20260905174204 | 82 | 157 | 3.0 | 5.0 | 0.00 | 0.00 | 0.00 | 80 | 1007.9 |
| 20260905174032 | 82 | 192 | 1.0 | 5.0 | 0.00 | 0.00 | 0.00 | 80 | 1007.9 |
| 20260905173653 | 82 | 199 | 2.0 | 5.0 | 0.00 | 0.00 | 0.00 | 80 | 1008.0 |
| 20260905173532 | 82 | 149 | 1.0 | 4.0 | 0.00 | 0.00 | 0.00 | 80 | 1007.9 |
| 20260905173144 | 82 | 252 | 1.0 | 4.0 | 0.00 | 0.00 | 0.00 | 80 | 1007.9 |
| 20260905173032 | 82 | 208 | 2.0 | 4.0 | 0.00 | 0.00 | 0.00 | 80 | 1007.9 |
| 20260905172633 | 82 | 252 | 1.0 | 4.0 | 0.00 | 0.00 | 0.00 | 80 | 1007.9 |
| 20260905172532 | 82 | 222 | 1.0 | 4.0 | 0.00 | 0.00 | 0.00 | 80 | 1007.8 |
| 20260905172123 | 82 | 264 | 0.0 | 1.0 | 0.00 | 0.00 | 0.00 | 80 | 1007.9 |
| 20260905172032 | 82 | 238 | 0.0 | 1.0 | 0.00 | 0.00 | 0.00 | 80 | 1007.9 |
| 20260905171613 | 82 | 167 | 0.0 | 2.0 | 0.00 | 0.00 | 0.00 | 80 | 1007.9 |
| 20260905171532 | 82 | 101 | 1.0 | 2.0 | 0.00 | 0.00 | 0.00 | 80 | 1007.9 |
| 20260905171104 | 82 | 129 | 0.0 | 1.0 | 0.00 | 0.00 | 0.00 | 80 | 1007.9 |
| 20260905171032 | 82 | 148 | 0.0 | 1.0 | 0.00 | 0.00 | 0.00 | 80 | 1007.9 |
| 20260905170553 | 82 | 51 | 0.0 | 1.0 | 0.00 | 0.00 | 0.00 | 80 | 1007.9 |
| 20260905170532 | 82 | 18 | 0.0 | 1.0 | 0.00 | 0.00 | 0.00 | 80 | 1007.9 |
| 20260905170043 | 82 | 40 | 0.0 | 1.0 | 0.00 | 0.00 | 0.00 | 80 | 1007.8 |
| 20260905170032 | 82 | 38 | 0.0 | 1.0 | 0.00 | 0.00 | 0.00 | 80 | 1007.9 |
| 20260905165534 | 82 | 37 | 1.0 | 3.0 | 0.00 | 0.00 | 0.00 | 80 | 1007.9 |
| 20260905165532 | 82 | 36 | 1.0 | 3.0 | 0.00 | 0.00 | 0.00 | 80 | 1007.9 |
| 20260905165032 | 83 | 38 | 1.0 | 1.0 | 0.00 | 0.00 | 0.00 | 80 | 1008.0 |
| 20260905165023 | 83 | 39 | 0.0 | 1.0 | 0.00 | 0.00 | 0.00 | 80 | 1008.0 |
| 20260905164532 | 82 | 39 | 1.0 | 3.0 | 0.00 | 0.00 | 0.00 | 80 | 1008.0 |
| 20260905164513 | 82 | 50 | 1.0 | 3.0 | 0.00 | 0.00 | 0.00 | 80 | 1008.0 |
| 20260905164032 | 82 | 43 | 1.0 | 4.0 | 0.00 | 0.00 | 0.00 | 80 | 1008.1 |
| 20260905164003 | 82 | 40 | 0.0 | 4.0 | 0.00 | 0.00 | 0.00 | 80 | 1008.1 |
| 20260905163531 | 83 | 77 | 1.0 | 3.0 | 0.00 | 0.00 | 0.00 | 80 | 1008.2 |
| 20260905163453 | 83 | 11 | 2.0 | 3.0 | 0.00 | 0.00 | 0.00 | 80 | 1008.2 |
| 20260905163031 | 83 | 348 | 2.0 | 5.0 | 0.00 | 0.00 | 0.00 | 80 | 1008.2 |
| 20260905162943 | 83 | 24 | 3.0 | 5.0 | 0.00 | 0.00 | 0.00 | 80 | 1008.2 |
| 20260905162531 | 83 | 29 | 2.0 | 2.0 | 0.00 | 0.00 | 0.00 | 80 | 1008.2 |
| 20260905162433 | 83 | 30 | 1.0 | 2.0 | 0.00 | 0.00 | 0.00 | 80 | 1008.2 |
| 20260905162032 | 83 | 45 | 0.0 | 4.0 | 0.00 | 0.00 | 0.00 | 80 | 1008.3 |
| 20260905161923 | 83 | 36 | 1.0 | 4.0 | 0.00 | 0.00 | 0.00 | 80 | 1008.2 |
| 20260905161532 | 83 | 13 | 2.0 | 3.0 | 0.00 | 0.00 | 0.00 | 80 | 1008.2 |
| 20260905161412 | 83 | 59 | 1.0 | 2.0 | 0.00 | 0.00 | 0.00 | 80 | 1008.2 |
| 20260905161031 | 83 | 67 | 0.0 | 4.0 | 0.00 | 0.00 | 0.00 | 80 | 1008.3 |
| 20260905160903 | 83 | 239 | 2.0 | 4.0 | 0.00 | 0.00 | 0.00 | 80 | 1008.3 |
| 20260905160532 | 83 | 279 | 1.0 | 4.0 | 0.00 | 0.00 | 0.00 | 80 | 1008.3 |
| 20260905160353 | 83 | 249 | 2.0 | 4.0 | 0.00 | 0.00 | 0.00 | 80 | 1008.3 |
| 20260905160032 | 83 | 217 | 2.0 | 9.0 | 0.00 | 0.00 | 0.00 | 79 | 1008.4 |
| 20260905155842 | 83 | 98 | 4.0 | 9.0 | 0.00 | 0.00 | 0.00 | 79 | 1008.4 |
| 20260905155531 | 83 | 184 | 3.0 | 5.0 | 0.00 | 0.00 | 0.00 | 79 | 1008.3 |
| 20260905155333 | 83 | 117 | 1.0 | 5.0 | 0.00 | 0.00 | 0.00 | 79 | 1008.4 |
| 20260905155033 | 83 | 229 | 1.0 | 4.0 | 0.00 | 0.00 | 0.00 | 79 | 1008.3 |
| 20260905154823 | 83 | 175 | 0.0 | 3.0 | 0.00 | 0.00 | 0.00 | 79 | 1008.3 |
| 20260905154532 | 83 | 39 | 1.0 | 3.0 | 0.00 | 0.00 | 0.00 | 79 | 1008.3 |
| 20260905154312 | 83 | 77 | 1.0 | 2.0 | 0.00 | 0.00 | 0.00 | 79 | 1008.4 |
| 20260905154031 | 83 | 50 | 1.0 | 3.0 | 0.00 | 0.00 | 0.00 | 79 | 1008.4 |
| 20260905153802 | 83 | 66 | 2.0 | 7.0 | 0.00 | 0.00 | 0.00 | 79 | 1008.5 |
| 20260905153531 | 83 | 31 | 2.0 | 7.0 | 0.00 | 0.00 | 0.00 | 79 | 1008.6 |
| 20260905153253 | 83 | 224 | 1.0 | 3.0 | 0.00 | 0.00 | 0.00 | 79 | 1008.5 |
| 20260905153031 | 83 | 161 | 1.0 | 5.0 | 0.00 | 0.00 | 0.00 | 79 | 1008.6 |
| 20260905152742 | 83 | 267 | 1.0 | 5.0 | 0.00 | 0.00 | 0.00 | 79 | 1008.7 |
| 20260905152531 | 83 | 238 | 0.0 | 2.0 | 0.00 | 0.00 | 0.00 | 79 | 1008.7 |
| 20260905152232 | 83 | 351 | 0.0 | 2.0 | 0.00 | 0.00 | 0.00 | 79 | 1008.7 |
| 20260905152031 | 83 | 103 | 0.0 | 2.0 | 0.00 | 0.00 | 0.00 | 79 | 1008.6 |
| 20260905151722 | 83 | 44 | 1.0 | 6.0 | 0.00 | 0.00 | 0.00 | 80 | 1008.7 |
| 20260905151531 | 83 | 306 | 1.0 | 6.0 | 0.00 | 0.00 | 0.00 | 79 | 1008.7 |
| 20260905151213 | 83 | 259 | 3.0 | 5.0 | 0.00 | 0.00 | 0.00 | 80 | 1008.7 |
| 20260905151031 | 83 | 249 | 1.0 | 3.0 | 0.00 | 0.00 | 0.00 | 80 | 1008.6 |
| 20260905150702 | 83 | 38 | 1.0 | 3.0 | 0.00 | 0.00 | 0.00 | 80 | 1008.6 |
| 20260905150531 | 83 | 10 | 1.0 | 3.0 | 0.00 | 0.00 | 0.00 | 80 | 1008.6 |
| 20260905150152 | 83 | 225 | 1.0 | 7.0 | 0.00 | 0.00 | 0.00 | 80 | 1008.7 |
| 20260905150031 | 83 | 181 | 1.0 | 7.0 | 0.00 | 0.00 | 0.00 | 80 | 1008.6 |
| 20260905145642 | 82 | 204 | 5.0 | 8.0 | 0.00 | 0.00 | 0.00 | 80 | 1008.6 |
| 20260905145531 | 82 | 229 | 6.0 | 8.0 | 0.00 | 0.00 | 0.00 | 80 | 1008.6 |
| 20260905145133 | 82 | 97 | 0.0 | 10.0 | 0.00 | 0.00 | 0.00 | 80 | 1008.6 |
| 20260905145031 | 82 | 345 | 4.0 | 10.0 | 0.00 | 0.00 | 0.00 | 80 | 1008.6 |
| 20260905144622 | 83 | 341 | 1.0 | 8.0 | 0.00 | 0.00 | 0.00 | 81 | 1008.6 |
| 20260905144530 | 83 | 240 | 1.0 | 8.0 | 0.00 | 0.00 | 0.00 | 81 | 1008.6 |
| 20260905144031 | 83 | 236 | 4.0 | 8.0 | 0.00 | 0.00 | 0.00 | 81 | 1008.6 |
| 20260905143602 | 83 | 199 | 4.0 | 8.0 | 0.00 | 0.00 | 0.00 | 81 | 1008.7 |
| 20260905143531 | 83 | 250 | 4.0 | 8.0 | 0.00 | 0.00 | 0.00 | 81 | 1008.7 |
| 20260905143053 | 83 | 327 | 1.0 | 8.0 | 0.00 | 0.00 | 0.00 | 81 | 1008.7 |
| 20260905143031 | 83 | 313 | 2.0 | 8.0 | 0.00 | 0.00 | 0.00 | 81 | 1008.7 |
| 20260905142542 | 83 | 248 | 5.0 | 9.0 | 0.00 | 0.00 | 0.00 | 81 | 1008.8 |
| 20260905142530 | 83 | 238 | 5.0 | 9.0 | 0.00 | 0.00 | 0.00 | 81 | 1008.8 |
| 20260905142033 | 83 | 252 | 2.0 | 4.0 | 0.00 | 0.00 | 0.00 | 81 | 1008.9 |
| 20260905142031 | 83 | 243 | 2.0 | 4.0 | 0.00 | 0.00 | 0.00 | 81 | 1008.9 |
| 20260905141531 | 83 | 179 | 3.0 | 10.0 | 0.00 | 0.00 | 0.00 | 81 | 1009.0 |
| 20260905141522 | 83 | 198 | 3.0 | 10.0 | 0.00 | 0.00 | 0.00 | 81 | 1008.9 |
| 20260905141030 | 83 | 251 | 2.0 | 5.0 | 0.00 | 0.00 | 0.00 | 81 | 1008.9 |
| 20260905141012 | 83 | 190 | 2.0 | 5.0 | 0.00 | 0.00 | 0.00 | 81 | 1008.9 |
| 20260905140530 | 83 | 337 | 1.0 | 9.0 | 0.00 | 0.00 | 0.00 | 81 | 1009.0 |
| 20260905140502 | 83 | 359 | 0.0 | 9.0 | 0.00 | 0.00 | 0.00 | 81 | 1009.0 |
| 20260905140031 | 83 | 212 | 6.0 | 9.0 | 0.00 | 0.00 | 0.00 | 81 | 1009.0 |
| 20260905135952 | 83 | 238 | 4.0 | 7.0 | 0.00 | 0.00 | 0.00 | 81 | 1009.0 |
| 20260905135530 | 83 | 228 | 2.0 | 6.0 | 0.00 | 0.00 | 0.00 | 81 | 1009.0 |
| 20260905135442 | 83 | 231 | 2.0 | 8.0 | 0.00 | 0.00 | 0.00 | 81 | 1009.0 |
| 20260905135030 | 83 | 238 | 3.0 | 8.0 | 0.00 | 0.00 | 0.00 | 81 | 1008.9 |
| 20260905134931 | 83 | 225 | 3.0 | 6.0 | 0.00 | 0.00 | 0.00 | 81 | 1008.9 |
| 20260905134530 | 83 | 286 | 3.0 | 5.0 | 0.00 | 0.00 | 0.00 | 81 | 1008.9 |
| 20260905134422 | 83 | 279 | 1.0 | 5.0 | 0.00 | 0.00 | 0.00 | 81 | 1008.9 |
| 20260905134030 | 83 | 15 | 1.0 | 4.0 | 0.00 | 0.00 | 0.00 | 81 | 1008.8 |
| 20260905133912 | 83 | 293 | 1.0 | 5.0 | 0.00 | 0.00 | 0.00 | 81 | 1008.8 |
| 20260905133401 | 83 | 249 | 4.0 | 6.0 | 0.00 | 0.00 | 0.00 | 80 | 1008.8 |
| 20260905132851 | 83 | 206 | 4.0 | 7.0 | 0.00 | 0.00 | 0.00 | 80 | 1008.8 |
| 20260905132530 | 83 | 357 | 0.0 | 3.0 | 0.00 | 0.00 | 0.00 | 80 | 1008.7 |
| 20260905132342 | 83 | 24 | 0.0 | 7.0 | 0.00 | 0.00 | 0.00 | 80 | 1008.6 |
| 20260905132031 | 83 | 57 | 3.0 | 7.0 | 0.00 | 0.00 | 0.00 | 80 | 1008.7 |
| 20260905131831 | 83 | 301 | 3.0 | 8.0 | 0.00 | 0.00 | 0.00 | 80 | 1008.6 |
| 20260905131530 | 83 | 49 | 5.0 | 8.0 | 0.00 | 0.00 | 0.00 | 80 | 1008.6 |
| 20260905131321 | 83 | 291 | 1.0 | 6.0 | 0.00 | 0.00 | 0.00 | 80 | 1008.6 |
| 20260905131030 | 83 | 245 | 1.0 | 6.0 | 0.00 | 0.00 | 0.00 | 80 | 1008.6 |
| 20260905130812 | 83 | 310 | 1.0 | 5.0 | 0.00 | 0.00 | 0.00 | 80 | 1008.6 |
| 20260905130530 | 83 | 282 | 2.0 | 6.0 | 0.00 | 0.00 | 0.00 | 80 | 1008.6 |
| 20260905130301 | 83 | 250 | 2.0 | 6.0 | 0.00 | 0.00 | 0.00 | 80 | 1008.6 |
| 20260905125751 | 83 | 200 | 3.0 | 8.0 | 0.00 | 0.00 | 0.00 | 80 | 1008.5 |
| 20260905125530 | 83 | 258 | 2.0 | 5.0 | 0.00 | 0.00 | 0.00 | 80 | 1008.4 |
| 20260905125241 | 83 | 18 | 1.0 | 7.0 | 0.00 | 0.00 | 0.00 | 80 | 1008.4 |
| 20260905125030 | 83 | 360 | 3.0 | 7.0 | 0.00 | 0.00 | 0.00 | 79 | 1008.4 |
| 20260905124732 | 83 | 360 | 1.0 | 6.0 | 0.00 | 0.00 | 0.00 | 79 | 1008.4 |
| 20260905124530 | 83 | 324 | 1.0 | 6.0 | 0.00 | 0.00 | 0.00 | 79 | 1008.3 |
| 20260905124221 | 83 | 322 | 0.0 | 4.0 | 0.00 | 0.00 | 0.00 | 79 | 1008.3 |
| 20260905124030 | 83 | 281 | 1.0 | 7.0 | 0.00 | 0.00 | 0.00 | 79 | 1008.3 |
| 20260905123711 | 83 | 295 | 4.0 | 7.0 | 0.00 | 0.00 | 0.00 | 79 | 1008.2 |
| 20260905123530 | 83 | 263 | 2.0 | 6.0 | 0.00 | 0.00 | 0.00 | 79 | 1008.2 |
| 20260905123202 | 83 | 253 | 2.0 | 6.0 | 0.00 | 0.00 | 0.00 | 79 | 1008.2 |
| 20260905123029 | 83 | 248 | 1.0 | 10.0 | 0.00 | 0.00 | 0.00 | 79 | 1008.2 |
| 20260905122651 | 83 | 250 | 5.0 | 10.0 | 0.00 | 0.00 | 0.00 | 79 | 1008.2 |
| 20260905122530 | 83 | 277 | 2.0 | 7.0 | 0.00 | 0.00 | 0.00 | 79 | 1008.1 |
| 20260905122141 | 83 | 272 | 4.0 | 7.0 | 0.00 | 0.00 | 0.00 | 79 | 1008.1 |
| 20260905122030 | 83 | 277 | 2.0 | 5.0 | 0.00 | 0.00 | 0.00 | 79 | 1008.0 |
| 20260905121631 | 83 | 256 | 2.0 | 5.0 | 0.00 | 0.00 | 0.00 | 79 | 1008.1 |
| 20260905121529 | 83 | 238 | 3.0 | 5.0 | 0.00 | 0.00 | 0.00 | 79 | 1008.0 |
| 20260905121121 | 83 | 255 | 2.0 | 5.0 | 0.00 | 0.00 | 0.00 | 79 | 1008.0 |
| 20260905121029 | 83 | 277 | 4.0 | 6.0 | 0.00 | 0.00 | 0.00 | 79 | 1008.0 |
| 20260905120611 | 83 | 257 | 2.0 | 8.0 | 0.00 | 0.00 | 0.00 | 79 | 1007.9 |
| 20260905120530 | 83 | 284 | 3.0 | 8.0 | 0.00 | 0.00 | 0.00 | 79 | 1007.9 |
| 20260905120100 | 83 | 294 | 3.0 | 6.0 | 0.00 | 0.00 | 0.00 | 79 | 1007.9 |
| 20260905120029 | 83 | 212 | 2.0 | 5.0 | 0.00 | 0.00 | 0.00 | 79 | 1007.9 |
| 20260905115551 | 83 | 274 | 2.0 | 7.0 | 0.00 | 0.00 | 0.00 | 79 | 1007.9 |
| 20260905115529 | 83 | 306 | 1.0 | 7.0 | 0.00 | 0.00 | 0.00 | 79 | 1007.8 |
| 20260905115041 | 83 | 197 | 5.0 | 8.0 | 0.00 | 0.00 | 0.00 | 79 | 1007.8 |
| 20260905115030 | 83 | 255 | 5.0 | 8.0 | 0.00 | 0.00 | 0.00 | 79 | 1007.8 |
| 20260905114532 | 84 | 233 | 2.0 | 5.0 | 0.00 | 0.00 | 0.00 | 79 | 1007.6 |
| 20260905114530 | 84 | 234 | 2.0 | 5.0 | 0.00 | 0.00 | 0.00 | 79 | 1007.6 |
| 20260905114029 | 84 | 268 | 1.0 | 5.0 | 0.00 | 0.00 | 0.00 | 79 | 1007.6 |
| 20260905114021 | 84 | 209 | 1.0 | 5.0 | 0.00 | 0.00 | 0.00 | 79 | 1007.6 |
| 20260905113529 | 84 | 297 | 1.0 | 6.0 | 0.00 | 0.00 | 0.00 | 79 | 1007.5 |
| 20260905113030 | 84 | 327 | 1.0 | 9.0 | 0.00 | 0.00 | 0.00 | 79 | 1007.5 |
| 20260905113001 | 84 | 331 | 1.0 | 9.0 | 0.00 | 0.00 | 0.00 | 79 | 1007.5 |
| 20260905112529 | 84 | 245 | 2.0 | 6.0 | 0.00 | 0.00 | 0.00 | 78 | 1007.4 |
| 20260905112450 | 84 | 255 | 2.0 | 6.0 | 0.00 | 0.00 | 0.00 | 78 | 1007.3 |
| 20260905112029 | 84 | 248 | 3.0 | 7.0 | 0.00 | 0.00 | 0.00 | 78 | 1007.3 |
| 20260905111941 | 84 | 291 | 4.0 | 7.0 | 0.00 | 0.00 | 0.00 | 78 | 1007.3 |
| 20260905111529 | 84 | 272 | 4.0 | 7.0 | 0.00 | 0.00 | 0.00 | 78 | 1007.2 |
| 20260905111431 | 84 | 273 | 3.0 | 7.0 | 0.00 | 0.00 | 0.00 | 78 | 1007.3 |
| 20260905111029 | 84 | 249 | 4.0 | 8.0 | 0.00 | 0.00 | 0.00 | 78 | 1007.2 |
| 20260905110920 | 84 | 267 | 4.0 | 8.0 | 0.00 | 0.00 | 0.00 | 78 | 1007.2 |
| 20260905110529 | 84 | 225 | 1.0 | 4.0 | 0.00 | 0.00 | 0.00 | 78 | 1007.2 |
| 20260905110410 | 84 | 348 | 1.0 | 4.0 | 0.00 | 0.00 | 0.00 | 78 | 1007.2 |
| 20260905110029 | 84 | 355 | 0.0 | 3.0 | 0.00 | 0.00 | 0.00 | 78 | 1007.1 |
| 20260905105901 | 84 | 294 | 0.0 | 3.0 | 0.00 | 0.00 | 0.00 | 78 | 1007.0 |
| 20260905105529 | 84 | 41 | 0.0 | 6.0 | 0.00 | 0.00 | 0.00 | 78 | 1007.0 |
| 20260905105350 | 84 | 239 | 1.0 | 6.0 | 0.00 | 0.00 | 0.00 | 78 | 1007.0 |
| 20260905105030 | 84 | 232 | 3.0 | 7.0 | 0.00 | 0.00 | 0.00 | 78 | 1007.0 |
| 20260905104841 | 84 | 298 | 4.0 | 7.0 | 0.00 | 0.00 | 0.00 | 78 | 1006.9 |
| 20260905104529 | 84 | 327 | 4.0 | 8.0 | 0.00 | 0.00 | 0.00 | 78 | 1006.8 |
| 20260905104330 | 84 | 262 | 3.0 | 8.0 | 0.00 | 0.00 | 0.00 | 78 | 1006.8 |
| 20260905104029 | 84 | 272 | 2.0 | 8.0 | 0.00 | 0.00 | 0.00 | 78 | 1006.8 |
| 20260905103820 | 84 | 227 | 4.0 | 8.0 | 0.00 | 0.00 | 0.00 | 77 | 1006.8 |
| 20260905103529 | 85 | 319 | 3.0 | 8.0 | 0.00 | 0.00 | 0.00 | 77 | 1006.8 |
| 20260905103310 | 85 | 285 | 4.0 | 8.0 | 0.00 | 0.00 | 0.00 | 77 | 1006.8 |
| 20260905103028 | 85 | 245 | 3.0 | 7.0 | 0.00 | 0.00 | 0.00 | 77 | 1006.7 |
| 20260905102800 | 85 | 219 | 5.0 | 14.0 | 0.00 | 0.00 | 0.00 | 76 | 1006.7 |
| 20260905102529 | 85 | 225 | 6.0 | 14.0 | 0.00 | 0.00 | 0.00 | 76 | 1006.7 |
| 20260905102250 | 85 | 316 | 3.0 | 5.0 | 0.00 | 0.00 | 0.00 | 76 | 1006.6 |
| 20260905102029 | 85 | 67 | 1.0 | 5.0 | 0.00 | 0.00 | 0.00 | 76 | 1006.6 |
| 20260905101528 | 85 | 334 | 1.0 | 10.0 | 0.00 | 0.00 | 0.00 | 76 | 1006.6 |
| 20260905101230 | 85 | 341 | 2.0 | 13.0 | 0.00 | 0.00 | 0.00 | 76 | 1006.6 |
| 20260905101029 | 85 | 69 | 6.0 | 13.0 | 0.00 | 0.00 | 0.00 | 76 | 1006.5 |
| 20260905100720 | 86 | 275 | 3.0 | 7.0 | 0.00 | 0.00 | 0.00 | 76 | 1006.5 |
| 20260905100529 | 86 | 67 | 2.0 | 7.0 | 0.00 | 0.00 | 0.00 | 76 | 1006.5 |
| 20260905100211 | 86 | 229 | 1.0 | 6.0 | 0.00 | 0.00 | 0.00 | 75 | 1006.4 |
| 20260905100028 | 86 | 70 | 2.0 | 10.0 | 0.00 | 0.00 | 0.00 | 75 | 1006.5 |
| 20260905095700 | 86 | 220 | 6.0 | 10.0 | 0.00 | 0.00 | 0.00 | 75 | 1006.4 |
| 20260905095528 | 86 | 224 | 3.0 | 7.0 | 0.00 | 0.00 | 0.00 | 75 | 1006.4 |
| 20260905095029 | 87 | 11 | 3.0 | 9.0 | 0.00 | 0.00 | 0.00 | 74 | 1006.4 |
| 20260905094529 | 88 | 243 | 4.0 | 7.0 | 0.00 | 0.00 | 0.00 | 73 | 1006.4 |
| 20260905094130 | 89 | 279 | 1.0 | 4.0 | 0.00 | 0.00 | 0.00 | 73 | 1006.3 |
| 20260905094028 | 89 | 357 | 2.0 | 12.0 | 0.00 | 0.00 | 0.00 | 73 | 1006.3 |
| 20260905093529 | 89 | 267 | 2.0 | 6.0 | 0.00 | 0.00 | 0.00 | 72 | 1006.3 |
| 20260905093110 | 89 | 199 | 2.0 | 10.0 | 0.00 | 0.00 | 0.00 | 71 | 1006.2 |
| 20260905093029 | 89 | 20 | 4.0 | 10.0 | 0.00 | 0.00 | 0.00 | 71 | 1006.2 |
| 20260905092050 | 90 | 262 | 4.0 | 10.0 | 0.00 | 0.00 | 0.00 | 70 | 1006.2 |
| 20260905092028 | 90 | 269 | 4.0 | 10.0 | 0.00 | 0.00 | 0.00 | 70 | 1006.2 |
| 20260905091540 | 91 | 334 | 3.0 | 6.0 | 0.00 | 0.00 | 0.00 | 70 | 1006.1 |
| 20260905091528 | 91 | 311 | 2.0 | 6.0 | 0.00 | 0.00 | 0.00 | 70 | 1006.1 |
| 20260905091030 | 90 | 19 | 3.0 | 9.0 | 0.00 | 0.00 | 0.00 | 72 | 1006.0 |
| 20260905091028 | 90 | 19 | 3.0 | 9.0 | 0.00 | 0.00 | 0.00 | 72 | 1006.0 |
| 20260905090528 | 89 | 320 | 3.0 | 19.0 | 0.00 | 0.00 | 0.00 | 71 | 1006.0 |
| 20260905090519 | 89 | 311 | 2.0 | 19.0 | 0.00 | 0.00 | 0.00 | 71 | 1006.0 |
| 20260905090028 | 91 | 38 | 3.0 | 10.0 | 0.00 | 0.00 | 0.00 | 69 | 1006.0 |
| 20260905090009 | 91 | 28 | 3.0 | 10.0 | 0.00 | 0.00 | 0.00 | 69 | 1005.9 |
| 20260905085528 | 92 | 268 | 3.0 | 8.0 | 0.00 | 0.00 | 0.00 | 68 | 1005.9 |
| 20260905085500 | 92 | 322 | 3.0 | 8.0 | 0.00 | 0.00 | 0.00 | 68 | 1005.9 |
| 20260905085029 | 92 | 261 | 6.0 | 9.0 | 0.00 | 0.00 | 0.00 | 67 | 1005.9 |
| 20260905084950 | 92 | 230 | 4.0 | 9.0 | 0.00 | 0.00 | 0.00 | 67 | 1005.9 |
| 20260905084529 | 91 | 353 | 3.0 | 10.0 | 0.00 | 0.00 | 0.00 | 68 | 1005.9 |
| 20260905084439 | 91 | 3 | 1.0 | 10.0 | 0.00 | 0.00 | 0.00 | 68 | 1005.9 |
| 20260905084028 | 90 | 245 | 2.0 | 11.0 | 0.00 | 0.00 | 0.00 | 70 | 1005.9 |
| 20260905083929 | 90 | 284 | 4.0 | 11.0 | 0.00 | 0.00 | 0.00 | 70 | 1005.9 |
| 20260905083528 | 90 | 62 | 4.0 | 16.0 | 0.00 | 0.00 | 0.00 | 69 | 1005.9 |
| 20260905083028 | 91 | 356 | 5.0 | 9.0 | 0.00 | 0.00 | 0.00 | 68 | 1005.9 |
| 20260905082528 | 91 | 215 | 2.0 | 14.0 | 0.00 | 0.00 | 0.00 | 68 | 1005.9 |
| 20260905082359 | 91 | 299 | 7.0 | 14.0 | 0.00 | 0.00 | 0.00 | 67 | 1005.9 |
| 20260905082028 | 92 | 8 | 3.0 | 9.0 | 0.00 | 0.00 | 0.00 | 68 | 1005.8 |
| 20260905081526 | 91 | 290 | 1.0 | 9.0 | 0.00 | 0.00 | 0.00 | 68 | 1005.9 |
| 20260905081028 | 92 | 36 | 1.0 | 10.0 | 0.00 | 0.00 | 0.00 | 66 | 1005.8 |
| 20260905080829 | 93 | 269 | 2.0 | 10.0 | 0.00 | 0.00 | 0.00 | 67 | 1005.8 |
| 20260905080528 | 93 | 242 | 3.0 | 6.0 | 0.00 | 0.00 | 0.00 | 67 | 1005.7 |
| 20260905080320 | 93 | 329 | 2.0 | 6.0 | 0.00 | 0.00 | 0.00 | 67 | 1005.7 |
| 20260905080027 | 93 | 250 | 2.0 | 6.0 | 0.00 | 0.00 | 0.00 | 68 | 1005.7 |
| 20260905075809 | 92 | 258 | 3.0 | 15.0 | 0.00 | 0.00 | 0.00 | 69 | 1005.7 |
| 20260905075528 | 91 | 293 | 4.0 | 15.0 | 0.00 | 0.00 | 0.00 | 68 | 1005.7 |
| 20260905075259 | 92 | 48 | 3.0 | 7.0 | 0.00 | 0.00 | 0.00 | 68 | 1005.8 |
| 20260905075028 | 92 | 282 | 2.0 | 10.0 | 0.00 | 0.00 | 0.00 | 69 | 1005.8 |
| 20260905074749 | 92 | 327 | 2.0 | 10.0 | 0.00 | 0.00 | 0.00 | 69 | 1005.8 |
| 20260905074527 | 92 | 248 | 3.0 | 10.0 | 0.00 | 0.00 | 0.00 | 70 | 1005.9 |
| 20260905074239 | 91 | 35 | 4.0 | 10.0 | 0.00 | 0.00 | 0.00 | 70 | 1005.9 |
| 20260905074028 | 91 | 244 | 2.0 | 9.0 | 0.00 | 0.00 | 0.00 | 70 | 1005.9 |
| 20260905073728 | 91 | 14 | 5.0 | 13.0 | 0.00 | 0.00 | 0.00 | 69 | 1006.0 |
| 20260905073527 | 92 | 16 | 6.0 | 13.0 | 0.00 | 0.00 | 0.00 | 68 | 1006.0 |
| 20260905073219 | 91 | 277 | 3.0 | 11.0 | 0.00 | 0.00 | 0.00 | 69 | 1006.0 |
| 20260905073027 | 92 | 261 | 5.0 | 11.0 | 0.00 | 0.00 | 0.00 | 69 | 1006.0 |
| 20260905072709 | 91 | 5 | 4.0 | 11.0 | 0.00 | 0.00 | 0.00 | 69 | 1006.1 |
| 20260905072527 | 92 | 44 | 6.0 | 11.0 | 0.00 | 0.00 | 0.00 | 69 | 1006.1 |
| 20260905072159 | 92 | 357 | 4.0 | 10.0 | 0.00 | 0.00 | 0.00 | 69 | 1006.1 |
| 20260905072027 | 92 | 235 | 4.0 | 12.0 | 0.00 | 0.00 | 0.00 | 69 | 1006.1 |
| 20260905071649 | 93 | 224 | 5.0 | 12.0 | 0.00 | 0.00 | 0.00 | 67 | 1006.1 |
| 20260905071528 | 93 | 258 | 4.0 | 12.0 | 0.00 | 0.00 | 0.00 | 67 | 1006.1 |
| 20260905071139 | 93 | 249 | 4.0 | 10.0 | 0.00 | 0.00 | 0.00 | 67 | 1006.1 |
| 20260905071027 | 93 | 269 | 2.0 | 10.0 | 0.00 | 0.00 | 0.00 | 67 | 1006.1 |
| 20260905070629 | 92 | 8 | 2.0 | 10.0 | 0.00 | 0.00 | 0.00 | 67 | 1006.1 |
| 20260905070527 | 92 | 211 | 3.0 | 11.0 | 0.00 | 0.00 | 0.00 | 67 | 1006.1 |
| 20260905070119 | 92 | 138 | 4.0 | 12.0 | 0.00 | 0.00 | 0.00 | 67 | 1006.1 |
| 20260905070027 | 92 | 248 | 4.0 | 12.0 | 0.00 | 0.00 | 0.00 | 67 | 1006.2 |
| 20260905065608 | 92 | 295 | 6.0 | 11.0 | 0.00 | 0.00 | 0.00 | 66 | 1006.1 |
| 20260905065527 | 93 | 246 | 6.0 | 11.0 | 0.00 | 0.00 | 0.00 | 66 | 1006.1 |
| 20260905065027 | 92 | 284 | 4.0 | 14.0 | 0.00 | 0.00 | 0.00 | 66 | 1006.1 |
| 20260905064548 | 93 | 236 | 5.0 | 11.0 | 0.00 | 0.00 | 0.00 | 66 | 1006.2 |
| 20260905064527 | 93 | 251 | 4.0 | 11.0 | 0.00 | 0.00 | 0.00 | 66 | 1006.2 |
| 20260905064039 | 94 | 209 | 6.0 | 11.0 | 0.00 | 0.00 | 0.00 | 64 | 1006.2 |
| 20260905064027 | 94 | 197 | 6.0 | 11.0 | 0.00 | 0.00 | 0.00 | 64 | 1006.2 |
| 20260905063529 | 94 | 290 | 3.0 | 7.0 | 0.00 | 0.00 | 0.00 | 65 | 1006.2 |
| 20260905063527 | 94 | 287 | 3.0 | 7.0 | 0.00 | 0.00 | 0.00 | 65 | 1006.2 |
| 20260905063027 | 92 | 15 | 4.0 | 12.0 | 0.00 | 0.00 | 0.00 | 67 | 1006.3 |
| 20260905063018 | 92 | 192 | 4.0 | 12.0 | 0.00 | 0.00 | 0.00 | 67 | 1006.3 |
| 20260905062527 | 90 | 209 | 5.0 | 11.0 | 0.00 | 0.00 | 0.00 | 68 | 1006.4 |
| 20260905062508 | 90 | 298 | 6.0 | 11.0 | 0.00 | 0.00 | 0.00 | 68 | 1006.3 |
| 20260905062027 | 89 | 239 | 6.0 | 17.0 | 0.00 | 0.00 | 0.00 | 69 | 1006.4 |
| 20260905061958 | 89 | 247 | 6.0 | 17.0 | 0.00 | 0.00 | 0.00 | 69 | 1006.4 |
| 20260905061526 | 89 | 238 | 8.0 | 18.0 | 0.00 | 0.00 | 0.00 | 68 | 1006.3 |
| 20260905061448 | 89 | 209 | 9.0 | 18.0 | 0.00 | 0.00 | 0.00 | 67 | 1006.4 |
| 20260905061027 | 90 | 209 | 9.0 | 14.0 | 0.00 | 0.00 | 0.00 | 69 | 1006.3 |
| 20260905060938 | 90 | 258 | 5.0 | 14.0 | 0.00 | 0.00 | 0.00 | 70 | 1006.3 |
| 20260905060527 | 89 | 222 | 8.0 | 12.0 | 0.00 | 0.00 | 0.00 | 69 | 1006.4 |
| 20260905060429 | 89 | 254 | 6.0 | 15.0 | 0.00 | 0.00 | 0.00 | 70 | 1006.3 |
| 20260905060026 | 88 | 236 | 7.0 | 17.0 | 0.00 | 0.00 | 0.00 | 71 | 1006.4 |
| 20260905055918 | 88 | 264 | 9.0 | 20.0 | 0.00 | 0.00 | 0.00 | 71 | 1006.3 |
| 20260905055527 | 88 | 230 | 12.0 | 20.0 | 0.00 | 0.00 | 0.00 | 70 | 1006.3 |
| 20260905055408 | 88 | 261 | 11.0 | 16.0 | 0.00 | 0.00 | 0.00 | 70 | 1006.3 |
| 20260905055026 | 88 | 274 | 7.0 | 14.0 | 0.00 | 0.00 | 0.00 | 70 | 1006.4 |
| 20260905054858 | 88 | 207 | 8.0 | 16.0 | 0.00 | 0.00 | 0.00 | 70 | 1006.4 |
| 20260905054527 | 88 | 225 | 9.0 | 19.0 | 0.00 | 0.00 | 0.00 | 70 | 1006.4 |
| 20260905054027 | 88 | 226 | 7.0 | 18.0 | 0.00 | 0.00 | 0.00 | 70 | 1006.5 |
| 20260905053527 | 90 | 225 | 7.0 | 13.0 | 0.00 | 0.00 | 0.00 | 69 | 1006.5 |
| 20260905053328 | 90 | 219 | 5.0 | 13.0 | 0.00 | 0.00 | 0.00 | 70 | 1006.6 |
| 20260905053027 | 89 | 226 | 8.0 | 13.0 | 0.00 | 0.00 | 0.00 | 69 | 1006.6 |
| 20260905052817 | 89 | 260 | 6.0 | 15.0 | 0.00 | 0.00 | 0.00 | 70 | 1006.6 |
| 20260905052526 | 89 | 251 | 5.0 | 15.0 | 0.00 | 0.00 | 0.00 | 69 | 1006.6 |
| 20260905052027 | 89 | 231 | 8.0 | 14.0 | 0.00 | 0.00 | 0.00 | 69 | 1006.6 |
| 20260905051757 | 89 | 266 | 7.0 | 13.0 | 0.00 | 0.00 | 0.00 | 70 | 1006.7 |
| 20260905051526 | 89 | 259 | 6.0 | 19.0 | 0.00 | 0.00 | 0.00 | 71 | 1006.7 |
| 20260905051248 | 88 | 262 | 6.0 | 19.0 | 0.00 | 0.00 | 0.00 | 71 | 1006.8 |
| 20260905051026 | 89 | 240 | 10.0 | 18.0 | 0.00 | 0.00 | 0.00 | 70 | 1006.7 |
| 20260905050737 | 90 | 266 | 8.0 | 13.0 | 0.00 | 0.00 | 0.00 | 70 | 1006.8 |
| 20260905050526 | 90 | 251 | 6.0 | 13.0 | 0.00 | 0.00 | 0.00 | 69 | 1006.8 |
| 20260905050227 | 90 | 249 | 6.0 | 12.0 | 0.00 | 0.00 | 0.00 | 68 | 1006.9 |
| 20260905050026 | 91 | 274 | 5.0 | 12.0 | 0.00 | 0.00 | 0.00 | 68 | 1006.9 |
| 20260905045718 | 91 | 253 | 8.0 | 15.0 | 0.00 | 0.00 | 0.00 | 69 | 1007.0 |
| 20260905045527 | 91 | 281 | 6.0 | 15.0 | 0.00 | 0.00 | 0.00 | 69 | 1007.1 |
| 20260905045026 | 90 | 242 | 7.0 | 12.0 | 0.00 | 0.00 | 0.00 | 69 | 1007.1 |
| 20260905044657 | 89 | 268 | 6.0 | 14.0 | 0.00 | 0.00 | 0.00 | 71 | 1007.2 |
| 20260905044526 | 88 | 28 | 6.0 | 14.0 | 0.00 | 0.00 | 0.00 | 72 | 1007.1 |
| 20260905044147 | 87 | 256 | 6.0 | 18.0 | 0.00 | 0.00 | 0.00 | 72 | 1007.2 |
| 20260905044026 | 87 | 186 | 9.0 | 21.0 | 0.00 | 0.00 | 0.00 | 72 | 1007.2 |
| 20260905043637 | 87 | 200 | 11.0 | 21.0 | 0.00 | 0.00 | 0.00 | 72 | 1007.2 |
| 20260905043526 | 87 | 213 | 6.0 | 16.0 | 0.00 | 0.00 | 0.00 | 73 | 1007.2 |
| 20260905043128 | 87 | 220 | 7.0 | 16.0 | 0.00 | 0.00 | 0.00 | 73 | 1007.2 |
| 20260905043026 | 87 | 239 | 7.0 | 19.0 | 0.00 | 0.00 | 0.00 | 72 | 1007.3 |
| 20260905042617 | 87 | 246 | 8.0 | 18.0 | 0.00 | 0.00 | 0.00 | 72 | 1007.4 |
| 20260905042526 | 87 | 196 | 7.0 | 18.0 | 0.00 | 0.00 | 0.00 | 72 | 1007.3 |
| 20260905042107 | 88 | 243 | 11.0 | 16.0 | 0.00 | 0.00 | 0.00 | 71 | 1007.4 |
| 20260905042026 | 88 | 214 | 9.0 | 16.0 | 0.00 | 0.00 | 0.00 | 71 | 1007.4 |
| 20260905041557 | 87 | 224 | 8.0 | 18.0 | 0.00 | 0.00 | 0.00 | 71 | 1007.4 |
| 20260905041526 | 87 | 225 | 8.0 | 18.0 | 0.00 | 0.00 | 0.00 | 71 | 1007.4 |
| 20260905041047 | 88 | 245 | 8.0 | 17.0 | 0.00 | 0.00 | 0.00 | 70 | 1007.4 |
| 20260905041026 | 88 | 190 | 8.0 | 17.0 | 0.00 | 0.00 | 0.00 | 70 | 1007.3 |
| 20260905040536 | 88 | 232 | 10.0 | 15.0 | 0.00 | 0.00 | 0.00 | 70 | 1007.3 |
| 20260905040525 | 88 | 248 | 9.0 | 15.0 | 0.00 | 0.00 | 0.00 | 70 | 1007.4 |
| 20260905040028 | 88 | 212 | 6.0 | 15.0 | 0.00 | 0.00 | 0.00 | 71 | 1007.4 |
| 20260905040026 | 88 | 181 | 6.0 | 15.0 | 0.00 | 0.00 | 0.00 | 71 | 1007.4 |
| 20260905035525 | 87 | 211 | 9.0 | 17.0 | 0.00 | 0.00 | 0.00 | 71 | 1007.5 |
| 20260905035517 | 87 | 231 | 8.0 | 17.0 | 0.00 | 0.00 | 0.00 | 71 | 1007.4 |
| 20260905035026 | 87 | 115 | 9.0 | 18.0 | 0.00 | 0.00 | 0.00 | 71 | 1007.5 |
| 20260905035007 | 87 | 257 | 7.0 | 18.0 | 0.00 | 0.00 | 0.00 | 71 | 1007.5 |
| 20260905034526 | 87 | 207 | 6.0 | 15.0 | 0.00 | 0.00 | 0.00 | 72 | 1007.6 |
| 20260905034457 | 87 | 225 | 5.0 | 15.0 | 0.00 | 0.00 | 0.00 | 72 | 1007.6 |
| 20260905034025 | 87 | 272 | 7.0 | 15.0 | 0.00 | 0.00 | 0.00 | 72 | 1007.6 |
| 20260905033947 | 87 | 156 | 7.0 | 15.0 | 0.00 | 0.00 | 0.00 | 71 | 1007.6 |
| 20260905033526 | 87 | 313 | 5.0 | 15.0 | 0.00 | 0.00 | 0.00 | 72 | 1007.6 |
| 20260905033437 | 87 | 277 | 7.0 | 15.0 | 0.00 | 0.00 | 0.00 | 72 | 1007.6 |
| 20260905033025 | 87 | 227 | 8.0 | 15.0 | 0.00 | 0.00 | 0.00 | 72 | 1007.6 |
| 20260905032928 | 87 | 265 | 7.0 | 15.0 | 0.00 | 0.00 | 0.00 | 72 | 1007.6 |
| 20260905032526 | 87 | 264 | 6.0 | 14.0 | 0.00 | 0.00 | 0.00 | 72 | 1007.6 |
| 20260905032417 | 87 | 235 | 7.0 | 14.0 | 0.00 | 0.00 | 0.00 | 72 | 1007.7 |
| 20260905032025 | 87 | 295 | 5.0 | 15.0 | 0.00 | 0.00 | 0.00 | 71 | 1007.7 |
| 20260905031907 | 87 | 197 | 6.0 | 14.0 | 0.00 | 0.00 | 0.00 | 71 | 1007.7 |
| 20260905031526 | 87 | 216 | 7.0 | 12.0 | 0.00 | 0.00 | 0.00 | 71 | 1007.8 |
| 20260905031357 | 87 | 216 | 3.0 | 11.0 | 0.00 | 0.00 | 0.00 | 72 | 1007.8 |
| 20260905031025 | 87 | 300 | 4.0 | 17.0 | 0.00 | 0.00 | 0.00 | 72 | 1007.8 |
| 20260905030846 | 86 | 235 | 6.0 | 18.0 | 0.00 | 0.00 | 0.00 | 72 | 1007.8 |
| 20260905030525 | 86 | 280 | 10.0 | 18.0 | 0.00 | 0.00 | 0.00 | 72 | 1007.8 |
| 20260905030337 | 87 | 205 | 9.0 | 15.0 | 0.00 | 0.00 | 0.00 | 72 | 1007.8 |
| 20260905030026 | 87 | 252 | 7.0 | 15.0 | 0.00 | 0.00 | 0.00 | 71 | 1007.8 |
| 20260905025826 | 87 | 250 | 6.0 | 11.0 | 0.00 | 0.00 | 0.00 | 72 | 1007.7 |
| 20260905025525 | 87 | 38 | 4.0 | 11.0 | 0.00 | 0.00 | 0.00 | 74 | 1007.8 |
| 20260905025317 | 86 | 230 | 7.0 | 11.0 | 0.00 | 0.00 | 0.00 | 74 | 1007.7 |
| 20260905025025 | 86 | 246 | 6.0 | 15.0 | 0.00 | 0.00 | 0.00 | 75 | 1007.7 |
| 20260905024807 | 85 | 279 | 9.0 | 15.0 | 0.00 | 0.00 | 0.00 | 76 | 1007.7 |
| 20260905024525 | 85 | 250 | 7.0 | 14.0 | 0.00 | 0.00 | 0.00 | 76 | 1007.7 |
| 20260905024256 | 85 | 282 | 5.0 | 12.0 | 0.00 | 0.00 | 0.00 | 75 | 1007.8 |
| 20260905024025 | 85 | 162 | 7.0 | 12.0 | 0.00 | 0.00 | 0.00 | 75 | 1007.8 |
| 20260905023747 | 85 | 185 | 6.0 | 14.0 | 0.00 | 0.00 | 0.00 | 75 | 1007.7 |
| 20260905023526 | 85 | 237 | 6.0 | 14.0 | 0.00 | 0.00 | 0.00 | 76 | 1007.8 |
| 20260905023236 | 85 | 251 | 2.0 | 13.0 | 0.00 | 0.00 | 0.00 | 76 | 1007.7 |
| 20260905023025 | 85 | 216 | 9.0 | 13.0 | 0.00 | 0.00 | 0.00 | 76 | 1007.7 |
| 20260905022726 | 85 | 234 | 3.0 | 13.0 | 0.00 | 0.00 | 0.00 | 75 | 1007.8 |
| 20260905022525 | 85 | 176 | 5.0 | 13.0 | 0.00 | 0.00 | 0.00 | 75 | 1007.7 |
| 20260905022217 | 85 | 192 | 4.0 | 16.0 | 0.00 | 0.00 | 0.00 | 75 | 1007.7 |
| 20260905022024 | 86 | 207 | 10.0 | 16.0 | 0.00 | 0.00 | 0.00 | 74 | 1007.7 |
| 20260905021525 | 85 | 235 | 6.0 | 12.0 | 0.00 | 0.00 | 0.00 | 76 | 1007.7 |
| 20260905021157 | 85 | 268 | 6.0 | 12.0 | 0.00 | 0.00 | 0.00 | 77 | 1007.6 |
| 20260905021025 | 85 | 173 | 4.0 | 11.0 | 0.00 | 0.00 | 0.00 | 77 | 1007.6 |
| 20260905020646 | 85 | 248 | 7.0 | 11.0 | 0.00 | 0.00 | 0.00 | 76 | 1007.7 |
| 20260905020525 | 85 | 106 | 5.0 | 10.0 | 0.00 | 0.00 | 0.00 | 76 | 1007.6 |
| 20260905020136 | 85 | 233 | 6.0 | 16.0 | 0.00 | 0.00 | 0.00 | 76 | 1007.6 |
| 20260905020025 | 85 | 249 | 8.0 | 16.0 | 0.00 | 0.00 | 0.00 | 76 | 1007.6 |
| 20260905015627 | 85 | 155 | 3.0 | 10.0 | 0.00 | 0.00 | 0.00 | 76 | 1007.7 |
| 20260905015524 | 85 | 201 | 5.0 | 10.0 | 0.00 | 0.00 | 0.00 | 76 | 1007.7 |
| 20260905015116 | 84 | 180 | 5.0 | 13.0 | 0.00 | 0.00 | 0.00 | 76 | 1007.7 |
| 20260905015025 | 84 | 184 | 5.0 | 13.0 | 0.00 | 0.00 | 0.00 | 76 | 1007.7 |
| 20260905014606 | 84 | 226 | 7.0 | 13.0 | 0.00 | 0.00 | 0.00 | 76 | 1007.7 |
| 20260905014525 | 84 | 258 | 6.0 | 13.0 | 0.00 | 0.00 | 0.00 | 76 | 1007.7 |
| 20260905014056 | 84 | 208 | 6.0 | 14.0 | 0.00 | 0.00 | 0.00 | 76 | 1007.8 |
| 20260905014024 | 84 | 168 | 5.0 | 14.0 | 0.00 | 0.00 | 0.00 | 76 | 1007.8 |
| 20260905013546 | 84 | 212 | 5.0 | 11.0 | 0.00 | 0.00 | 0.00 | 76 | 1007.8 |
| 20260905013525 | 84 | 279 | 6.0 | 11.0 | 0.00 | 0.00 | 0.00 | 76 | 1007.8 |
| 20260905013035 | 84 | 141 | 5.0 | 12.0 | 0.00 | 0.00 | 0.00 | 75 | 1007.8 |
| 20260905013025 | 84 | 98 | 4.0 | 12.0 | 0.00 | 0.00 | 0.00 | 75 | 1007.8 |
| 20260905012527 | 84 | 180 | 3.0 | 13.0 | 0.00 | 0.00 | 0.00 | 74 | 1007.7 |
| 20260905012025 | 85 | 216 | 3.0 | 9.0 | 0.00 | 0.00 | 0.00 | 72 | 1007.7 |
| 20260905012016 | 85 | 222 | 3.0 | 9.0 | 0.00 | 0.00 | 0.00 | 72 | 1007.8 |
| 20260905011524 | 86 | 54 | 4.0 | 9.0 | 0.00 | 0.00 | 0.00 | 71 | 1007.7 |
| 20260905011506 | 86 | 36 | 4.0 | 12.0 | 0.00 | 0.00 | 0.00 | 71 | 1007.7 |
| 20260905011025 | 87 | 216 | 6.0 | 12.0 | 0.00 | 0.00 | 0.00 | 69 | 1007.6 |
| 20260905010956 | 87 | 202 | 6.0 | 12.0 | 0.00 | 0.00 | 0.00 | 69 | 1007.7 |
| 20260905010524 | 88 | 307 | 4.0 | 14.0 | 0.00 | 0.00 | 0.00 | 69 | 1007.6 |
| 20260905010446 | 88 | 20 | 7.0 | 14.0 | 0.00 | 0.00 | 0.00 | 68 | 1007.7 |
| 20260905010025 | 89 | 25 | 5.0 | 11.0 | 0.00 | 0.00 | 0.00 | 69 | 1007.6 |
| 20260905005936 | 89 | 162 | 3.0 | 11.0 | 0.00 | 0.00 | 0.00 | 69 | 1007.6 |
| 20260905005525 | 87 | 35 | 1.0 | 9.0 | 0.00 | 0.00 | 0.00 | 71 | 1007.5 |
| 20260905005426 | 87 | 29 | 2.0 | 9.0 | 0.00 | 0.00 | 0.00 | 71 | 1007.5 |
| 20260905005025 | 86 | 252 | 4.0 | 10.0 | 0.00 | 0.00 | 0.00 | 71 | 1007.5 |
| 20260905004916 | 86 | 210 | 7.0 | 10.0 | 0.00 | 0.00 | 0.00 | 71 | 1007.5 |
| 20260905004524 | 86 | 236 | 4.0 | 11.0 | 0.00 | 0.00 | 0.00 | 71 | 1007.4 |
| 20260905004406 | 87 | 197 | 7.0 | 11.0 | 0.00 | 0.00 | 0.00 | 70 | 1007.4 |
| 20260905004024 | 88 | 175 | 1.0 | 11.0 | 0.00 | 0.00 | 0.00 | 70 | 1007.4 |
| 20260905003856 | 88 | 25 | 5.0 | 11.0 | 0.00 | 0.00 | 0.00 | 69 | 1007.4 |
| 20260905003524 | 89 | 9 | 2.0 | 8.0 | 0.00 | 0.00 | 0.00 | 70 | 1007.3 |
| 20260905003346 | 89 | 251 | 4.0 | 8.0 | 0.00 | 0.00 | 0.00 | 70 | 1007.3 |
| 20260905003024 | 88 | 253 | 1.0 | 4.0 | 0.00 | 0.00 | 0.00 | 70 | 1007.3 |
| 20260905002835 | 88 | 28 | 2.0 | 4.0 | 0.00 | 0.00 | 0.00 | 71 | 1007.3 |
| 20260905002524 | 87 | 24 | 2.0 | 4.0 | 0.00 | 0.00 | 0.00 | 71 | 1007.3 |
| 20260905002325 | 87 | 108 | 1.0 | 4.0 | 0.00 | 0.00 | 0.00 | 72 | 1007.3 |
| 20260905002024 | 86 | 71 | 2.0 | 6.0 | 0.00 | 0.00 | 0.00 | 72 | 1007.3 |
| 20260905001815 | 86 | 87 | 3.0 | 6.0 | 0.00 | 0.00 | 0.00 | 72 | 1007.2 |
| 20260905001524 | 86 | 53 | 3.0 | 6.0 | 0.00 | 0.00 | 0.00 | 72 | 1007.2 |
| 20260905001306 | 86 | 33 | 1.0 | 6.0 | 0.00 | 0.00 | 0.00 | 72 | 1007.2 |
| 20260905001024 | 86 | 20 | 4.0 | 9.0 | 0.00 | 0.00 | 0.00 | 72 | 1007.2 |
| 20260905000756 | 85 | 69 | 5.0 | 9.0 | 0.00 | 0.00 | 0.00 | 73 | 1007.3 |
| 20260905000524 | 85 | 19 | 5.0 | 9.0 | 0.00 | 0.00 | 0.00 | 73 | 1007.2 |
| 20260905000245 | 85 | 58 | 5.0 | 9.0 | 0.00 | 0.00 | 0.00 | 73 | 1007.2 |
| 20260905000024 | 85 | 26 | 5.0 | 7.0 | 0.00 | 0.00 | 0.00 | 75 | 1007.2 |
| 20260904235735 | 84 | 28 | 1.0 | 4.0 | 0.00 | 0.00 | 0.00 | 77 | 1007.1 |
| 20260904235524 | 83 | 208 | 1.0 | 6.0 | 0.00 | 0.00 | 0.00 | 77 | 1007.1 |
| 20260904235225 | 82 | 28 | 2.0 | 6.0 | 0.00 | 0.00 | 0.00 | 78 | 1007.1 |
| 20260904235024 | 82 | 24 | 1.0 | 4.0 | 0.00 | 0.00 | 0.00 | 79 | 1007.1 |
| 20260904234715 | 82 | 183 | 2.0 | 4.0 | 0.00 | 0.00 | 0.00 | 79 | 1007.0 |
| 20260904234524 | 82 | 199 | 2.0 | 4.0 | 0.00 | 0.00 | 0.00 | 80 | 1007.0 |
| 20260904234205 | 82 | 209 | 2.0 | 5.0 | 0.00 | 0.00 | 0.00 | 80 | 1007.0 |
| 20260904234023 | 82 | 191 | 3.0 | 5.0 | 0.00 | 0.00 | 0.00 | 80 | 1007.0 |
| 20260904233655 | 82 | 209 | 2.0 | 5.0 | 0.00 | 0.00 | 0.00 | 81 | 1006.9 |
| 20260904233524 | 81 | 197 | 3.0 | 5.0 | 0.00 | 0.00 | 0.00 | 81 | 1006.9 |
| 20260904233145 | 81 | 169 | 3.0 | 5.0 | 0.00 | 0.00 | 0.00 | 81 | 1006.8 |
| 20260904233023 | 81 | 166 | 3.0 | 5.0 | 0.00 | 0.00 | 0.00 | 82 | 1006.8 |
| 20260904232635 | 81 | 220 | 3.0 | 4.0 | 0.00 | 0.00 | 0.00 | 82 | 1006.8 |
| 20260904232523 | 81 | 258 | 2.0 | 4.0 | 0.00 | 0.00 | 0.00 | 82 | 1006.8 |
| 20260904232125 | 81 | 213 | 2.0 | 6.0 | 0.00 | 0.00 | 0.00 | 82 | 1006.7 |
| 20260904232024 | 81 | 212 | 2.0 | 6.0 | 0.00 | 0.00 | 0.00 | 82 | 1006.7 |
| 20260904231615 | 81 | 163 | 2.0 | 6.0 | 0.00 | 0.00 | 0.00 | 81 | 1006.6 |
| 20260904231523 | 81 | 233 | 2.0 | 6.0 | 0.00 | 0.00 | 0.00 | 81 | 1006.6 |
| 20260904231024 | 81 | 192 | 3.0 | 5.0 | 0.00 | 0.00 | 0.00 | 81 | 1006.6 |
| 20260904230555 | 81 | 196 | 2.0 | 6.0 | 0.00 | 0.00 | 0.00 | 81 | 1006.6 |
| 20260904230523 | 81 | 201 | 2.0 | 6.0 | 0.00 | 0.00 | 0.00 | 81 | 1006.5 |
| 20260904230045 | 81 | 203 | 3.0 | 5.0 | 0.00 | 0.00 | 0.00 | 81 | 1006.5 |
| 20260904230023 | 81 | 213 | 3.0 | 5.0 | 0.00 | 0.00 | 0.00 | 81 | 1006.5 |
| 20260904225535 | 81 | 200 | 2.0 | 4.0 | 0.00 | 0.00 | 0.00 | 81 | 1006.5 |
| 20260904225524 | 81 | 219 | 2.0 | 4.0 | 0.00 | 0.00 | 0.00 | 81 | 1006.6 |
| 20260904225025 | 81 | 165 | 2.0 | 4.0 | 0.00 | 0.00 | 0.00 | 81 | 1006.6 |
| 20260904225023 | 81 | 171 | 2.0 | 4.0 | 0.00 | 0.00 | 0.00 | 81 | 1006.6 |
| 20260904224523 | 81 | 169 | 3.0 | 4.0 | 0.00 | 0.00 | 0.00 | 81 | 1006.6 |
| 20260904224515 | 81 | 180 | 3.0 | 4.0 | 0.00 | 0.00 | 0.00 | 81 | 1006.6 |
| 20260904224023 | 81 | 187 | 2.0 | 4.0 | 0.00 | 0.00 | 0.00 | 81 | 1006.5 |
| 20260904224004 | 81 | 199 | 2.0 | 3.0 | 0.00 | 0.00 | 0.00 | 81 | 1006.5 |
| 20260904223524 | 81 | 224 | 1.0 | 3.0 | 0.00 | 0.00 | 0.00 | 80 | 1006.4 |
| 20260904223455 | 81 | 170 | 1.0 | 3.0 | 0.00 | 0.00 | 0.00 | 80 | 1006.3 |
| 20260904223024 | 81 | 217 | 2.0 | 2.0 | 0.00 | 0.00 | 0.00 | 80 | 1006.3 |
| 20260904222523 | 81 | 251 | 1.0 | 2.0 | 0.00 | 0.00 | 0.00 | 80 | 1006.3 |
| 20260904222435 | 81 | 230 | 1.0 | 2.0 | 0.00 | 0.00 | 0.00 | 80 | 1006.2 |
| 20260904222023 | 81 | 253 | 1.0 | 3.0 | 0.00 | 0.00 | 0.00 | 81 | 1006.2 |
| 20260904221924 | 81 | 231 | 1.0 | 3.0 | 0.00 | 0.00 | 0.00 | 80 | 1006.1 |
| 20260904221523 | 81 | 219 | 1.0 | 2.0 | 0.00 | 0.00 | 0.00 | 81 | 1006.1 |
| 20260904221414 | 81 | 205 | 1.0 | 2.0 | 0.00 | 0.00 | 0.00 | 81 | 1006.2 |
| 20260904221023 | 81 | 216 | 1.0 | 2.0 | 0.00 | 0.00 | 0.00 | 81 | 1006.2 |
| 20260904220905 | 81 | 225 | 1.0 | 2.0 | 0.00 | 0.00 | 0.00 | 81 | 1006.1 |
| 20260904220523 | 81 | 200 | 1.0 | 2.0 | 0.00 | 0.00 | 0.00 | 81 | 1006.1 |
| 20260904220354 | 81 | 222 | 1.0 | 2.0 | 0.00 | 0.00 | 0.00 | 81 | 1006.1 |
| 20260904220023 | 81 | 211 | 2.0 | 2.0 | 0.00 | 0.00 | 0.00 | 81 | 1006.1 |
| 20260904215844 | 81 | 208 | 1.0 | 1.0 | 0.00 | 0.00 | 0.00 | 81 | 1006.1 |
| 20260904215523 | 81 | 196 | 1.0 | 2.0 | 0.00 | 0.00 | 0.00 | 81 | 1006.1 |
| 20260904215334 | 81 | 196 | 1.0 | 3.0 | 0.00 | 0.00 | 0.00 | 81 | 1006.1 |
| 20260904215023 | 81 | 190 | 1.0 | 3.0 | 0.00 | 0.00 | 0.00 | 81 | 1006.0 |
| 20260904214824 | 81 | 236 | 1.0 | 3.0 | 0.00 | 0.00 | 0.00 | 81 | 1006.0 |
| 20260904214523 | 81 | 238 | 1.0 | 4.0 | 0.00 | 0.00 | 0.00 | 81 | 1006.0 |
| 20260904214315 | 81 | 219 | 2.0 | 4.0 | 0.00 | 0.00 | 0.00 | 81 | 1006.0 |
| 20260904214023 | 81 | 191 | 2.0 | 4.0 | 0.00 | 0.00 | 0.00 | 81 | 1006.1 |
| 20260904213804 | 81 | 216 | 1.0 | 3.0 | 0.00 | 0.00 | 0.00 | 81 | 1006.0 |
| 20260904213523 | 81 | 231 | 1.0 | 2.0 | 0.00 | 0.00 | 0.00 | 81 | 1006.0 |
| 20260904213254 | 81 | 222 | 1.0 | 2.0 | 0.00 | 0.00 | 0.00 | 81 | 1006.0 |
| 20260904213022 | 81 | 222 | 1.0 | 3.0 | 0.00 | 0.00 | 0.00 | 81 | 1006.0 |
| 20260904212744 | 81 | 217 | 1.0 | 3.0 | 0.00 | 0.00 | 0.00 | 81 | 1006.0 |
| 20260904212523 | 81 | 221 | 1.0 | 2.0 | 0.00 | 0.00 | 0.00 | 81 | 1006.0 |
| 20260904212234 | 81 | 215 | 1.0 | 2.0 | 0.00 | 0.00 | 0.00 | 81 | 1006.0 |
| 20260904211724 | 81 | 218 | 2.0 | 3.0 | 0.00 | 0.00 | 0.00 | 80 | 1006.0 |
| 20260904211523 | 81 | 232 | 1.0 | 3.0 | 0.00 | 0.00 | 0.00 | 80 | 1006.0 |
| 20260904211214 | 81 | 203 | 1.0 | 2.0 | 0.00 | 0.00 | 0.00 | 80 | 1006.0 |
| 20260904211022 | 81 | 208 | 1.0 | 2.0 | 0.00 | 0.00 | 0.00 | 80 | 1006.0 |
| 20260904210704 | 81 | 210 | 1.0 | 2.0 | 0.00 | 0.00 | 0.00 | 80 | 1005.9 |
| 20260904210523 | 81 | 249 | 1.0 | 2.0 | 0.00 | 0.00 | 0.00 | 80 | 1005.9 |
| 20260904210153 | 81 | 212 | 1.0 | 3.0 | 0.00 | 0.00 | 0.00 | 80 | 1006.0 |
| 20260904210022 | 81 | 220 | 1.0 | 3.0 | 0.00 | 0.00 | 0.00 | 80 | 1006.0 |
| 20260904205644 | 81 | 196 | 2.0 | 3.0 | 0.00 | 0.00 | 0.00 | 80 | 1006.0 |
| 20260904205523 | 81 | 235 | 1.0 | 3.0 | 0.00 | 0.00 | 0.00 | 80 | 1006.0 |
| 20260904205134 | 81 | 184 | 1.0 | 3.0 | 0.00 | 0.00 | 0.00 | 81 | 1006.0 |